Regional Weather Roundup
Issued by NWS Shreveport, LA

Home | Current Version | Previous Version | Text Only | Print | Product List | Glossary On
Versions: 1 2 3 4 5 6 7 8 9 10 11 12 13 14 15 16 17 18 19 20 21 22 23 24 25 26 27 28 29 30 31 32 33 34 35 36 37 38 39 40 41 42 43 44 45 46 47 48 49 50
000
ASUS44 KSHV 200310
RWRSHV

WEATHER ROUNDUP FOR THE FOUR STATE AREA
NATIONAL WEATHER SERVICE SHREVEPORT LA
1000 PM CDT SUN MAY 19 2019

NOTE:  "FAIR" INDICATES FEW OR NO CLOUDS BELOW 12000 FEET
WITH NO SIGNIFICANT WEATHER AND/OR OBSTRUCTIONS TO VISIBILITY.

!LAZ001-LAZ014-TXZ097-200400
SHREVEPORT...MONROE...TEXARKANA RADIOS

CITY           SKY/WX    TMP DP  RH WIND       PRES   REMARKS
SHREVEPORT     CLOUDY    77  68  73 NE12      29.93R THUNDER
MONROE           N/A     76  71  85 S5        29.96R
NATCHITOCHES     N/A     74  73  94 SE3       29.93R
TEXARKANA      CLEAR     74  63  68 E3        29.92R
$$

!LAZ001-LAZ014-TXZ097-200400
OTHER LOCATIONS...

CITY           SKY/WX    TMP DP  RH WIND       PRES   REMARKS
DOWNTOWN SHV   TSTM      76  73  91 S6        29.93R VSB 3/4
BOSSIER CITY   LGT RAIN  75  73  94 NE3       29.93R
RUSTON           N/A     75  71  87 S5        29.98R
LITTLE ROCK    CLEAR     68  60  75 CALM      29.94R
EL DORADO        N/A     70  69  97 SE6       29.96R
JACKSON        MOCLDY    72  68  87 SE6       29.97R
NEW ORLEANS    MOCLDY    75  70  84 SE5       29.96S
HOUSTON        MOCLDY    80  78  94 SE10      29.89R
LUFKIN         CLOUDY    69  68  96 CALM      29.91F
TYLER          PTCLDY    79  66  64 NE7       29.88R
DAL FT WORTH   MOCLDY    73  59  61 E7        29.86R
$$


!TXZ136-TXZ165-200400
TYLER...LUFKIN RADIOS

CITY           SKY/WX    TMP DP  RH WIND       PRES   REMARKS
TYLER          PTCLDY    79  66  64 NE7       29.88R
GILMER         CLEAR     75  64  67 CALM      29.90R
LONGVIEW       MOCLDY    77  65  66 E10       29.89R
LUFKIN         CLOUDY    69  68  96 CALM      29.91F
$$

!TXZ136-TXZ165-200400
OTHER LOCATIONS...

CITY           SKY/WX    TMP DP  RH WIND       PRES   REMARKS
NACOGDOCHES    CLOUDY    74  68  81 SE8       29.92R
BEAUMONT       CLOUDY    78  72  81 MISG      29.90F
HOUSTON        MOCLDY    80  78  94 SE10      29.89R
COLLEGE STN    PTCLDY    83  74  74 SE8       29.86R
AUSTIN         PTCLDY    82  75  79 S7        29.84R
DAL FT WORTH   MOCLDY    73  59  61 E7        29.86R
TEXARKANA      CLEAR     74  63  68 E3        29.92R
SHREVEPORT     CLOUDY    77  68  73 NE12      29.93R THUNDER
FORT POLK        N/A     74  72  93 SE6       29.92R
LAKE CHARLES     N/A     77  72  84 S5        29.90F
$$



USA.gov is the U.S. government's official web portal to all federal, state and local government web resources and services.